Location: Baumgartsau
(48.4586°N, 14.0864°E)
Time: 23:31:50
(UTC+00:00)

Cosmos 1076 Rocket - Pass Details

Date: 09 April 2020
Orbit: 590 x 612 km, 82.5° (Epoch: 27 May)

Event Time Altitude Azimuth Distance (km) Brightness Sun altitude
Rises 19:38:16 0° 351° (N) 2,850 7.6 -17.7°
Reaches altitude 10° 19:40:29 10° 353° (N) 1,946 6.7 -17.9°
Maximum altitude 19:44:47 76° 79° (ENE) 624 3.4 -18.5°
Enters shadow 19:46:21 38° 158° (SSE) 917 4.0 -18.7°
